GFSFLT1_2pvu_pres_000.txt.gz
Presure
145 149 160 154 157 170 167 178 146 146 143 152 155 192 188 186 173 172 174 189 234 223 220 127 133 133 135 84 136 123 130 143 146
96 107 138 149 129 178 178 141 148 148 144 154 192 189 167 172 162 172 130 210 140 144 88 182 178 126 145 144 195 206 180 190 182
89 186 125 164 127 165 183 133 145 145 151 129 241 181 170 172 168 181 251 239 190 194 209 134 151 194 199 212 195 203 225 220 194
161 155 187 124 109 172 173 144 198 101 102 102 150 162 173 172 173 255 239 232 152 143 203 103 140 202 196 196 209 218 214 213 215
183 201 151 104 108 134 172 246 244 188 104 104 110 123 131 174 258 249 237 226 215 203 88 83 135 200 199 202 180 201 207 220 209
182 208 164 146 132 262 195 247 156 210 216 168 171 166 170 267 260 240 224 210 93 137 87 87 131 198 196 199 214 200 202 199 192
169 200 211 178 221 234 239 236 150 169 152 164 168 160 163 194 254 236 221 90 89 91 95 95 101 204 191 205 201 203 206 168 206
84 84 168 264 214 238 144 219 145 141 167 175 149 169 171 163 192 209 88 155 138 103 209 196 103 201 202 213 193 211 196 206 197
100 215 160 232 239 142 183 140 139 158 167 152 160 208 168 232 168 165 171 165 102 138 100 152 182 184 172 164 183 182 209 197 194
94 107 105 110 129 127 135 203 155 160 177 177 161 175 196 165 164 135 139 131 137 97 159 154 161 164 166 170 191 166 164 174 192
225 170 124 118 118 119 120 126 151 178 185 179 175 170 175 172 162 120 147 170 157 106 151 160 168 164 170 172 168 144 169 171 170
211 235 222 214 206 152 197 200 128 131 136 185 178 173 170 169 152 110 121 167 95 100 172 110 149 170 177 160 153 163 171 171 174
234 196 215 207 193 204 205 195 200 189 161 190 185 144 141 127 137 113 149 156 97 182 179 168 162 160 154 154 149 150 144 184 183
226 197 196 206 201 144 172 196 186 174 181 180 189 149 140 130 110 110 102 169 170 161 159 161 158 167 165 157 150 161 162 140 166
214 208 197 180 196 165 193 193 192 185 185 180 171 167 208 177 128 196 199 198 193 187 195 181 158 178 199 188 187 169 188 189 185
207 202 204 209 208 205 204 204 203 202 205 204 210 207 206 206 208 207 205 205 205 208 206 210 202 198 200 203 206 208 211 209 210
211 199 196 194 193 194 194 193 192 191 192 192 192 192 193 185 185 187 187 190 188 186 186 187 183 183 188 188 185 178 184 186 177
185 185 185 186 186 186 184 181 181 188 188 182 178 158 179 174 196 175 191 202 180 195 183 194 197 157 199 201 198 170 204 202 202
184 183 131 180 178 175 171 182 183 190 179 181 176 178 195 174 183 187 178 185 183 188 188 193 192 200 200 203 211 211 209 213 213
180 177 170 163 182 167 181 177 176 180 179 185 185 191 197 197 167 179 183 181 180 184 193 198 202 237 197 206 249 128 127 124 140

GFSFLT1_2pvu_pres_003.txt.gz
Presure
87 104 161 155 100 167 163 178 196 116 81 87 200 150 86 151 158 162 162 192 188 173 169 170 120 128 216 89 108 132 215 127 120
136 174 95 95 157 153 134 140 148 136 181 134 145 149 139 156 214 182 177 229 177 172 169 176 132 117 204 83 193 212 113 138 200
178 132 189 131 136 141 163 124 117 142 145 184 98 166 100 102 144 243 181 195 176 176 178 183 241 228 88 88 125 203 167 187 204
152 134 160 132 174 185 130 108 114 137 155 145 263 167 104 105 109 236 122 173 172 179 186 247 231 83 88 206 88 139 193 204 183
148 147 140 186 193 146 157 119 136 164 229 259 250 246 177 151 228 228 153 161 162 263 250 248 175 87 90 85 93 200 215 207 192
165 131 82 79 82 155 207 196 161 231 224 214 239 146 202 169 168 190 165 165 163 162 255 95 218 96 94 212 171 103 204 206 195
98 85 86 90 89 147 97 236 226 234 235 231 148 151 147 184 172 152 163 169 173 148 125 173 231 116 98 100 107 115 209 201 198
94 82 94 85 190 114 115 253 125 214 146 144 138 144 153 178 188 152 162 183 168 155 164 171 173 161 100 99 107 156 204 207 197
92 190 90 98 192 208 224 247 125 210 119 123 125 131 155 159 178 180 159 168 202 168 160 137 118 103 142 141 158 156 147 208 189
138 95 135 94 99 213 237 227 218 212 161 130 150 150 147 135 182 183 179 178 173 174 153 110 135 141 96 163 102 164 164 165 142
184 173 90 214 227 216 229 224 142 189 176 151 160 189 202 172 156 158 180 143 146 174 171 127 110 99 97 164 170 171 175 153 175
101 101 90 224 230 223 226 217 214 140 201 151 167 196 191 139 188 193 195 183 180 142 141 142 102 98 154 158 162 175 180 163 161
172 188 133 203 193 222 217 217 141 195 197 160 186 144 199 189 176 180 181 183 180 195 116 103 114 168 164 140 173 178 163 164 166
192 211 228 223 220 215 206 204 206 210 206 205 173 206 203 205 212 165 215 211 210 179 201 210 210 210 206 203 201 200 200 201 190
206 194 200 217 218 206 204 204 198 196 196 196 194 192 193 195 196 194 193 194 191 189 184 185 187 185 186 196 195 192 191 191 194
187 198 192 189 194 190 185 190 183 182 194 189 189 185 183 184 191 189 187 187 183 191 178 183 189 181 179 188 185 184 185 189 194
191 173 193 192 183 182 181 178 180 183 180 182 175 186 176 170 182 171 174 177 176 177 178 171 189 188 127 188 197 179 179 183 181
176 187 186 133 184 144 146 185 179 181 181 176 170 179 177 175 170 188 179 190 175 179 180 186 185 195 199 195 195 201 202 195 194
183 189 180 179 180 147 173 183 172 167 167 178 187 158 182 168 180 180 186 174 167 182 187 183 185 191 193 211 205 205 234 226 215
193 180 182 177 179 171 180 178 169 177 183 178 181 174 164 162 170 151 176 187 179 184 179 178 192 215 213 215 227 231 154 211 243

GFSFLT1_2pvu_pres_006.txt.gz
Presure
157 169 169 151 191 156 95 189 167 145 158 154 126 132 165 150 134 161 99 150 154 160 158 155 201 181 195 175 164 138 78 90 234
171 185 180 151 184 162 104 129 143 106 124 110 158 150 137 127 131 255 114 102 228 219 250 241 206 236 189 180 177 84 164 149 232
154 119 179 159 141 158 174 173 135 188 193 114 170 152 134 138 150 236 146 212 110 183 139 124 168 209 169 173 134 86 90 89 224
176 132 159 172 161 106 98 134 144 159 202 123 129 122 151 149 248 252 245 169 237 238 228 161 182 155 175 189 87 233 122 204 175
85 92 87 82 83 142 145 91 128 90 165 204 241 167 241 239 214 236 159 149 228 199 216 207 162 167 158 96 93 237 90 217 96
86 94 108 89 87 90 84 203 83 217 192 149 206 250 238 234 220 195 145 144 209 191 153 155 169 168 170 165 159 154 98 97 97
87 95 110 88 173 144 86 97 191 186 202 234 186 194 227 119 194 133 138 203 189 181 181 155 161 89 167 163 169 168 173 93 207
78 95 180 172 184 93 90 96 165 207 226 235 234 209 178 134 116 113 124 192 158 156 169 179 176 161 181 202 153 141 126 185 124
169 123 78 84 195 186 83 112 111 218 220 232 225 218 219 196 206 159 202 133 154 156 146 188 181 181 180 178 176 124 100 95 102
99 85 89 79 93 97 122 182 191 238 231 229 214 195 203 157 151 177 154 186 202 185 198 162 191 181 144 146 171 150 99 97 162
110 87 105 107 84 184 97 189 235 217 233 221 217 215 206 206 204 176 173 144 167 160 193 176 200 194 189 183 141 131 102 142 144
78 109 94 85 105 187 193 205 237 231 222 214 217 218 220 209 205 209 157 203 203 205 214 215 214 216 218 107 212 198 191 189 183
170 83 92 99 109 144 196 197 222 222 206 215 208 202 200 197 195 195 194 195 196 197 202 198 194 195 200 199 201 196 193 197 208
99 111 119 108 109 142 205 203 180 207 197 183 191 188 189 185 185 185 184 184 183 185 187 186 183 182 182 181 185 178 191 189 184
197 181 117 108 110 109 194 194 113 191 192 187 191 190 192 191 189 190 181 186 183 182 184 194 189 181 194 193 189 189 182 183 188
115 103 186 106 110 111 190 186 187 192 191 187 172 185 182 180 183 191 188 185 184 183 185 192 182 197 186 177 190 174 173 181 173
98 102 109 111 140 192 200 176 193 173 185 178 170 175 188 181 169 178 175 173 188 191 182 185 183 191 184 185 195 192 189 188 190
221 110 109 111 193 187 161 179 190 176 181 178 185 183 181 182 178 185 188 179 181 178 190 200 205 203 200 195 202 207 200 201 190
111 194 112 164 194 180 182 190 182 182 181 183 181 186 183 169 163 174 178 176 189 193 190 190 200 185 184 266 252 246 253 207 211
213 199 192 193 180 190 188 188 186 181 188 183 182 181 180 173 175 164 151 180 170 174 282 260 249 235 230 231 231 229 231 230 232

GFSFLT1_2pvu_pres_009.txt.gz
Presure
141 142 140 124 119 152 121 137 191 192 132 173 125 147 149 109 106 127 205 133 137 243 231 138 159 147 112 157 188 205 233 211 78
144 142 135 145 161 171 159 170 129 182 152 104 126 137 217 120 118 220 248 121 137 152 160 182 160 173 248 186 124 219 246 238 146
168 139 130 153 183 148 83 82 141 161 163 182 155 142 144 166 150 257 152 142 207 147 198 240 241 196 188 199 220 180 190 184 125
144 133 142 167 82 87 90 164 105 143 167 130 125 125 134 200 241 260 249 149 171 230 220 222 149 208 140 184 224 193 162 162 157
88 90 92 93 93 100 123 92 162 89 94 90 192 150 195 209 254 239 229 231 221 215 220 221 146 149 210 150 153 153 170 97 93
85 85 142 95 172 85 87 94 85 83 83 172 144 205 197 217 244 230 220 214 146 216 140 127 148 192 151 184 177 157 138 120 159
92 173 137 94 92 126 157 170 181 143 149 96 204 197 204 217 234 224 220 215 200 123 120 119 123 144 172 163 167 180 179 163 179
89 87 94 115 99 103 91 109 112 96 93 189 182 206 245 212 231 219 217 207 203 173 151 196 158 169 165 138 147 156 180 188 180
80 85 89 89 97 79 87 100 83 132 194 196 143 200 235 236 225 220 212 204 208 209 141 151 153 151 152 192 186 185 180 184 182
84 85 92 97 137 154 94 82 86 105 189 179 202 210 235 217 224 218 216 212 211 208 204 180 179 202 153 156 177 157 162 196 191
103 84 107 115 124 83 102 91 106 105 111 141 196 214 214 218 221 214 210 208 206 204 202 199 197 197 197 194 194 199 202 200 189
80 83 192 183 106 84 100 169 106 105 182 205 131 217 213 207 202 192 181 193 194 193 191 191 199 192 189 188 202 197 190 188 200
105 111 155 116 85 114 174 181 110 133 110 111 142 186 180 193 163 121 191 189 180 182 183 184 183 184 182 183 182 182 183 182 182
123 132 107 79 115 106 117 102 103 109 110 208 198 195 180 192 192 182 189 183 183 189 191 190 194 181 182 181 182 182 191 193 187
110 109 108 83 116 104 103 161 104 109 111 207 194 178 184 195 186 189 181 179 184 190 193 186 178 187 186 187 186 189 187 186 189
99 78 112 111 100 104 124 109 209 112 114 203 191 191 177 193 182 181 189 173 189 188 193 183 185 190 187 183 185 191 198 200 194
88 110 110 107 113 105 131 156 217 178 204 192 183 192 178 193 182 188 191 184 171 186 184 187 181 182 183 194 183 187 199 207 286
114 100 103 106 112 110 170 175 207 204 187 186 180 188 181 190 192 187 188 180 183 182 184 180 179 182 187 184 200 212 274 253 247
112 109 109 111 108 111 214 204 201 193 191 182 182 191 184 190 178 186 174 192 188 184 181 184 186 176 194 214 229 262 242 222 242
109 118 209 112 210 209 206 195 194 183 189 181 190 189 190 189 175 178 181 186 187 176 184 181 174 193 215 227 260 225 265 262 257

GFSFLT1_2pvu_pres_012.txt.gz
Presure
141 129 152 162 161 124 168 139 168 143 172 160 86 186 170 169 172 187 195 191 216 149 155 289 122 124 137 164 162 189 243 144 146
136 148 161 153 150 144 179 146 116 168 170 176 177 145 159 159 163 154 142 147 140 150 191 251 186 165 223 143 181 170 143 251 246
158 112 140 151 111 115 84 88 90 135 89 143 78 108 111 117 126 117 179 171 209 239 244 237 238 150 146 198 231 231 195 184 210
137 141 153 104 95 89 94 100 93 128 88 85 87 85 117 164 179 190 206 204 205 236 144 228 224 216 216 218 217 220 142 142 191
91 89 92 94 94 116 95 140 92 130 94 95 160 169 98 95 160 202 196 208 235 222 226 217 214 199 212 206 163 125 139 148 173
89 88 88 95 84 172 156 86 84 92 144 175 179 117 95 158 198 196 202 219 227 228 225 223 210 209 206 124 123 122 123 142 193
86 82 92 93 178 166 164 105 99 88 90 83 100 182 190 193 186 198 181 212 242 226 218 216 212 206 202 199 193 193 169 139 143
82 105 91 84 87 90 95 93 90 97 88 84 93 103 116 186 188 190 200 242 228 224 219 211 207 206 200 200 172 195 150 187 149
87 112 92 82 84 85 95 83 120 186 87 90 111 104 108 109 110 194 200 229 222 220 216 215 212 209 209 207 204 197 145 142 146
85 84 83 150 79 81 94 188 184 150 150 93 174 100 108 188 185 111 210 221 200 216 213 208 208 207 203 202 202 202 202 201 201
125 195 193 101 84 132 172 196 99 121 92 149 188 177 143 109 111 182 205 198 189 190 189 193 194 184 195 193 192 193 195 193 193
101 129 134 134 121 110 111 180 119 94 108 109 105 95 107 108 111 152 206 197 187 176 191 189 179 185 193 182 185 181 180 185 184
132 108 120 110 77 101 123 118 83 110 109 105 102 127 165 199 122 115 204 201 179 182 193 189 187 190 178 176 176 183 187 187 178
130 128 115 105 113 122 114 104 110 112 106 115 116 132 129 191 207 208 198 195 173 181 185 193 174 182 191 196 191 199 192 190 190
84 125 110 113 117 100 88 106 108 100 107 103 109 127 127 208 214 205 195 192 182 182 180 194 185 184 191 191 180 185 187 190 184
130 147 160 115 124 95 87 94 112 106 107 104 109 153 189 213 203 200 193 183 184 191 185 190 195 184 185 173 185 180 185 185 187
126 177 147 117 115 84 87 192 104 108 108 110 115 206 210 203 203 191 198 182 186 183 186 194 191 178 194 187 190 189 190 180 184
110 117 146 118 90 90 194 114 110 114 131 168 205 208 204 199 193 186 193 183 137 191 193 200 181 186 195 191 188 175 166 177 185
101 195 114 95 113 106 112 107 228 213 193 201 205 206 198 201 192 190 193 199 199 200 189 184 191 195 187 184 176 184 189 191 204
178 185 122 190 172 193 196 214 212 211 211 200 203 201 198 195 192 185 190 196 179 181 189 194 196 189 183 183 192 194 208 196 179

GFSFLT1_2pvu_pres_018.txt.gz
Presure
142 144 149 141 84 145 128 131 144 138 142 109 142 150 139 130 80 82 142 151 108 125 177 184 162 189 190 191 211 202 211 238 235
128 132 99 155 144 136 132 148 149 144 100 97 148 86 88 83 92 138 93 94 110 96 161 182 178 183 188 206 203 205 215 236 222
127 153 129 147 144 141 146 152 155 128 83 91 94 130 102 91 147 92 111 162 148 161 182 187 188 192 192 202 196 196 230 226 230
145 155 148 123 135 128 118 154 134 85 89 111 82 95 149 103 90 88 151 159 114 185 181 187 191 191 194 210 194 199 226 222 214
140 136 165 154 108 96 124 101 98 99 96 75 88 122 178 124 96 90 86 95 98 146 103 106 103 105 197 195 203 195 227 223 218
107 100 148 107 116 92 85 87 82 87 124 86 110 87 89 89 99 118 100 91 94 102 96 103 105 153 204 175 198 192 219 223 224
103 137 132 93 88 89 86 86 86 91 91 91 86 103 90 99 101 185 179 146 96 139 184 103 104 105 109 107 131 109 163 215 213
168 154 97 86 88 86 86 88 84 90 83 89 150 84 92 100 154 138 165 178 193 121 105 93 97 105 103 201 192 192 208 200 189
215 229 88 86 91 91 90 88 84 90 87 200 199 98 94 83 89 102 199 112 97 165 106 112 102 111 193 202 208 186 204 198 185
108 91 94 95 89 92 90 160 88 107 107 192 166 188 111 164 111 134 153 155 108 109 104 101 106 106 108 118 118 191 208 196 183
98 84 87 87 87 87 116 129 86 94 110 100 129 122 223 100 98 116 114 109 110 108 100 107 103 102 105 136 205 191 209 199 196
92 91 98 90 92 98 101 93 116 177 220 225 211 221 126 110 114 127 90 93 107 105 106 106 106 105 112 205 198 197 207 199 198
100 98 93 87 87 100 93 99 126 232 235 130 253 124 121 110 109 144 94 89 99 112 104 104 108 111 128 205 195 210 207 203 195
87 80 88 100 93 97 96 154 95 124 214 90 195 127 124 115 112 112 116 95 103 105 103 106 184 198 198 197 215 210 204 204 195
97 89 88 87 92 95 98 104 116 113 117 126 144 126 125 178 174 91 113 101 109 117 104 110 205 203 219 217 210 202 197 200 189
100 174 92 81 95 100 196 200 195 123 200 117 111 122 97 121 122 120 169 105 151 198 224 223 226 221 203 207 206 205 199 200 192
243 204 90 108 101 135 191 193 129 163 197 191 183 168 109 103 111 205 173 191 141 203 217 216 173 201 211 211 206 202 199 199 198
99 154 134 102 178 228 215 193 198 161 180 113 100 104 101 145 138 180 185 135 183 171 182 196 205 213 195 200 205 199 198 201 200
216 173 172 245 245 235 232 139 215 199 109 99 104 106 114 181 189 149 99 176 174 175 186 172 174 173 192 199 202 205 206 205 204
223 247 238 231 240 96 226 219 97 224 170 115 182 184 187 180 104 182 187 181 175 169 173 179 182 188 180 199 213 213 209 198 188

GFSFLT1_2pvu_pres_021.txt.gz
Presure
111 145 131 133 159 148 84 89 143 141 123 123 144 140 104 151 160 78 91 94 92 97 157 96 122 161 162 175 192 180 190 195 202
143 141 144 139 132 125 101 146 154 145 144 159 156 103 146 139 94 89 90 113 88 95 163 163 166 131 142 163 178 177 189 203 205
144 150 148 123 130 130 132 157 141 144 133 123 143 148 87 95 95 114 94 91 125 107 89 99 169 165 132 137 99 148 190 195 197
148 145 153 160 133 149 147 119 157 160 134 97 133 94 104 87 87 123 137 91 93 87 92 93 100 96 101 99 107 168 196 103 117
122 129 115 128 176 132 117 140 133 149 128 95 97 80 87 122 89 88 90 97 106 109 109 163 98 161 189 102 101 102 104 115 201
167 133 123 157 171 152 157 101 92 98 78 87 84 98 88 90 86 90 81 100 97 101 158 147 128 171 108 94 92 104 104 105 199
145 100 151 177 102 106 156 86 87 88 86 87 85 86 90 86 86 87 97 129 103 193 101 175 185 124 108 97 126 141 109 107 110
114 134 171 173 102 167 89 83 80 89 87 84 85 79 120 87 162 163 106 80 110 139 104 178 124 110 111 104 101 103 100 102 108
100 97 210 171 102 153 115 87 82 86 91 84 197 195 114 99 169 212 205 196 113 84 125 112 115 114 110 108 104 107 100 104 108
94 229 112 103 109 167 87 90 95 93 90 82 88 90 88 232 201 115 172 119 173 94 108 122 88 102 103 109 104 103 101 104 111
84 191 103 88 210 98 93 92 88 84 89 85 87 94 104 124 119 227 139 161 233 111 110 91 90 101 102 101 110 104 108 110 200
98 82 100 101 121 107 90 88 81 85 85 97 89 97 103 234 235 171 239 239 132 122 116 114 117 106 97 104 111 106 111 134 203
106 92 111 104 115 95 95 96 89 93 97 100 96 101 88 222 219 217 87 198 132 128 125 112 117 116 123 111 110 131 213 215 226
99 98 106 116 102 136 96 92 87 84 97 89 87 104 108 114 128 143 128 207 188 102 153 161 199 128 111 154 146 210 218 210 202
109 185 132 107 97 95 80 74 83 95 85 91 95 175 200 166 154 120 183 116 122 120 104 103 111 131 167 183 117 170 222 221 224
226 111 175 104 88 91 100 77 92 98 96 100 99 103 198 197 129 139 192 193 94 102 110 111 103 139 181 184 204 224 226 185 216
250 234 233 229 137 198 144 103 106 132 100 102 102 158 170 193 192 159 111 98 184 103 109 105 106 193 165 184 178 212 178 174 178
237 247 220 237 232 224 102 98 96 100 104 165 226 232 214 138 104 190 192 97 110 125 185 103 189 184 182 175 175 176 182 176 173
246 238 243 245 229 229 190 189 214 136 235 247 212 222 92 89 124 147 174 193 186 180 184 191 184 183 185 182 178 174 171 173 183
213 255 232 263 245 235 224 212 222 232 234 232 243 90 93 230 222 225 223 215 208 208 193 185 190 188 183 183 183 178 174 184 186

GFSFLT1_2pvu_pres_024.txt.gz
Presure
132 132 132 135 134 125 146 92 133 140 148 144 146 129 113 144 140 85 150 144 88 94 98 150 92 140 146 183 160 155 201 142 183
134 147 145 145 146 142 123 149 147 147 131 140 140 132 141 153 113 145 84 88 129 92 89 90 88 130 94 100 96 117 130 104 181
161 152 135 141 146 146 150 139 103 122 144 134 142 135 128 126 81 79 115 84 133 90 92 92 94 93 123 93 113 102 102 100 102
105 150 153 142 130 145 139 142 145 159 149 140 134 132 121 144 92 88 90 118 89 95 81 97 101 109 123 133 148 150 190 91 98
140 163 128 142 184 140 128 138 132 131 129 166 121 116 128 82 84 89 84 89 109 82 87 94 89 107 106 159 169 201 112 164 106
175 114 135 153 163 124 115 125 145 185 141 89 88 90 87 84 84 83 87 89 78 94 108 95 104 107 115 197 196 178 110 108 101
146 104 137 163 163 134 135 172 166 182 98 91 80 87 90 85 83 87 95 87 132 125 165 199 109 134 103 97 169 178 111 109 106
164 186 135 186 180 103 169 186 104 173 104 88 85 89 91 86 82 83 83 180 148 218 224 218 179 121 99 108 129 93 105 101 104
101 168 181 182 165 149 183 176 121 180 87 79 85 90 85 92 90 89 84 94 242 247 225 104 236 145 131 138 97 91 104 96 100
183 168 168 128 108 198 158 240 103 139 179 92 98 97 91 88 85 137 91 98 246 121 242 222 148 222 224 219 93 116 124 96 104
98 221 131 118 230 104 138 231 108 102 90 93 91 87 91 81 99 90 92 89 107 110 186 99 216 240 255 131 116 103 108 112 116
231 225 164 106 102 88 108 209 109 111 115 94 83 90 80 94 101 97 89 102 103 194 87 219 215 207 215 210 130 125 127 194 220
234 194 105 220 95 99 104 106 102 109 140 96 91 96 94 102 97 90 94 97 103 106 118 118 193 123 124 125 154 124 179 103 125
220 202 116 165 103 95 125 98 112 106 196 103 90 95 99 93 92 90 99 89 101 152 200 159 140 162 166 124 141 207 104 97 108
225 221 187 107 107 227 103 177 96 107 101 104 83 83 91 91 97 99 98 102 100 107 109 119 104 177 189 197 117 107 192 177 193
217 215 228 199 102 104 104 106 217 219 233 84 104 96 96 102 99 97 90 82 105 100 195 87 187 194 188 138 111 188 185 191 192
215 215 211 191 231 209 221 218 250 145 111 225 94 96 226 96 102 102 97 101 214 207 178 90 194 191 191 192 195 189 186 192 193
217 213 216 220 213 100 198 228 243 247 234 235 231 192 93 100 222 92 157 235 131 233 153 113 220 202 195 190 191 193 188 188 187
202 201 202 213 198 201 222 200 251 243 251 242 230 215 216 194 92 150 219 227 241 95 97 232 227 223 223 224 205 198 194 194 191
212 210 207 175 224 205 170 230 224 259 235 257 246 236 228 217 207 199 235 223 226 106 236 230 225 221 220 218 222 222 219 213 213

GFSFLT1_2pvu_pres_027.txt.gz
Presure
131 134 105 131 142 143 152 147 125 120 139 136 133 144 142 129 133 138 119 142 148 142 106 129 112 86 116 86 170 91 93 122 97
131 141 129 119 140 145 146 150 148 143 142 147 113 151 128 143 150 143 149 82 97 128 93 88 97 86 91 135 132 159 97 123 133
149 150 146 144 167 148 153 160 151 149 143 138 135 144 135 146 152 119 102 107 110 86 149 112 92 97 92 87 95 121 125 164 154
150 122 142 143 132 147 150 148 135 131 140 161 160 127 143 149 135 82 84 96 84 89 89 82 87 156 77 146 92 104 120 175 169
143 115 144 158 154 151 125 122 125 135 136 124 115 187 131 179 128 83 87 93 84 89 83 78 122 177 139 103 150 127 108 110 201
127 165 168 104 106 170 168 172 125 153 173 125 145 145 127 190 153 86 91 88 87 84 83 96 117 88 188 163 196 188 138 106 180
153 139 139 97 114 129 162 168 176 175 175 154 182 192 99 91 85 89 87 85 92 115 103 157 175 111 159 107 212 119 175 104 120
168 159 165 99 108 166 127 165 173 173 127 177 107 179 187 91 87 92 85 76 84 84 82 94 194 240 241 214 239 156 243 188 224
167 177 175 170 103 134 181 181 118 190 185 190 112 111 89 91 89 89 92 92 88 95 215 93 96 103 207 98 83 234 131 122 239
174 190 166 149 126 102 175 179 189 183 217 157 190 138 228 147 92 99 89 88 91 99 90 87 98 89 102 109 119 127 164 227 223
180 191 116 183 188 135 120 182 162 116 104 173 107 228 90 222 93 85 78 88 93 99 90 89 94 96 103 105 204 217 197 208 213
187 179 170 194 185 136 135 112 238 214 112 110 129 164 109 99 86 90 91 94 95 89 90 94 96 95 96 98 199 110 122 105 87
171 182 252 254 183 177 226 134 242 200 118 107 105 116 107 167 187 102 87 95 99 90 87 91 95 98 97 99 103 103 200 188 205
209 229 234 199 225 232 239 114 221 143 194 97 101 102 106 103 109 79 98 88 88 90 97 97 92 99 97 102 103 146 197 195 89
221 219 217 220 225 223 223 205 202 202 141 103 108 129 86 82 88 95 199 97 92 96 102 98 102 96 98 98 142 184 196 189 127
205 203 204 204 207 206 209 220 218 235 209 109 108 107 108 110 94 110 96 101 97 102 107 229 93 97 110 220 143 214 202 204 202
224 224 221 218 218 219 221 128 218 215 218 222 220 214 222 241 253 250 242 237 236 229 109 215 80 97 201 234 222 115 223 204 220
205 206 215 212 215 216 207 214 221 207 217 159 168 102 150 159 180 242 248 239 164 228 220 222 154 226 223 223 231 240 231 226 228
211 191 195 198 200 198 204 204 202 214 211 204 203 217 190 174 248 246 242 249 248 170 231 232 219 211 204 236 236 228 238 240 231
210 205 202 204 198 204 203 213 215 215 224 230 217 222 89 232 228 250 237 238 246 239 270 243 277 227 224 204 207 225 228 225 234

GFSFLT1_2pvu_pres_030.txt.gz
Presure
132 133 137 97 135 130 134 153 122 159 161 143 161 118 153 134 137 150 142 125 139 124 143 132 147 89 84 136 86 91 91 154 124
107 131 111 142 125 134 99 138 138 136 134 143 138 142 150 151 148 125 147 137 79 83 124 88 140 108 86 123 88 84 83 85 103
114 124 150 136 159 155 148 150 143 103 136 140 127 145 141 134 142 142 128 104 86 156 107 175 85 86 134 143 126 118 182 143 104
108 163 154 139 148 147 145 146 155 157 157 147 155 130 141 154 129 146 141 97 83 128 85 90 84 80 92 107 122 202 175 182 122
132 123 143 161 167 147 163 163 152 156 158 166 169 146 128 172 142 132 160 82 88 140 87 84 77 102 79 86 184 116 165 131 193
135 162 153 160 138 166 158 137 169 157 173 173 157 155 134 171 173 157 132 137 117 90 87 93 83 121 91 106 107 203 163 200 248
147 133 172 178 181 166 157 162 173 168 160 163 157 165 123 170 172 167 125 90 87 84 83 87 82 80 183 178 123 158 170 102 183
141 155 175 150 174 181 180 167 153 180 111 181 171 119 179 142 193 159 92 89 121 86 80 86 92 95 87 93 92 99 101 104 112
172 155 181 169 181 185 179 173 179 180 129 109 194 129 175 117 194 107 105 96 90 90 91 88 91 97 89 88 93 92 100 102 101
172 183 175 171 182 187 178 187 96 97 103 102 188 184 206 187 178 136 229 90 125 96 86 92 90 97 90 85 93 93 92 92 97
85 191 184 187 189 186 195 180 152 200 190 187 176 213 241 137 109 132 117 103 90 86 87 93 94 95 100 90 92 95 95 94 96
177 183 168 177 179 175 196 194 244 193 174 107 236 110 198 133 224 113 113 112 108 93 94 85 96 94 87 96 94 94 94 95 100
189 195 197 188 198 196 185 189 217 237 231 240 238 229 202 232 218 114 109 137 107 106 105 106 86 89 88 92 96 94 98 96 99
190 197 184 189 205 198 225 216 220 218 215 217 215 215 167 166 239 207 99 99 102 96 104 96 179 213 230 161 100 96 101 165 96
184 191 192 198 195 220 232 225 228 214 222 227 230 221 225 220 219 222 189 173 190 160 125 142 110 247 100 97 97 106 80 103 223
187 195 203 222 239 232 223 222 215 213 212 222 218 216 216 221 220 153 104 223 100 231 258 245 251 248 250 235 231 229 226 98 149
208 212 211 206 204 206 204 205 209 214 214 220 216 201 209 210 204 223 238 240 188 220 240 210 184 250 221 243 236 204 190 223 219
208 210 202 201 214 203 176 207 215 211 208 203 200 202 205 216 215 215 217 234 228 223 221 230 260 247 239 238 238 236 162 234 230
204 215 206 199 202 209 206 206 219 214 213 213 215 209 213 203 211 218 215 223 218 222 228 235 226 248 246 247 249 226 229 235 230
203 200 211 212 196 203 204 212 214 207 203 208 217 217 209 208 212 216 213 218 176 228 225 216 226 243 238 233 231 232 238 248 247

GFSFLT1_2pvu_pres_033.txt.gz
Presure
139 141 144 146 142 136 132 139 142 129 142 123 140 136 139 106 92 151 141 146 135 135 133 141 137 103 125 97 94 88 84 82 130
153 122 124 133 137 149 123 136 136 108 153 160 161 159 148 153 142 154 147 128 148 133 89 91 138 90 83 88 87 84 117 174 109
142 147 146 120 161 155 146 139 155 149 159 157 147 154 156 162 135 157 160 147 166 167 172 85 81 147 81 89 103 142 87 140 118
152 134 157 121 123 140 123 142 144 142 145 130 148 167 163 168 175 174 164 161 154 101 85 123 96 87 80 81 109 84 192 114 113
158 147 139 154 165 160 163 142 132 142 150 156 145 148 139 136 172 151 163 122 164 160 84 177 85 85 81 96 82 164 98 121 103
150 145 142 154 149 131 131 148 154 155 131 142 178 180 161 166 163 152 181 145 165 184 97 89 89 86 88 97 95 114 92 95 96
133 159 157 162 155 161 131 154 154 156 151 170 168 177 178 159 186 176 150 138 119 188 92 89 85 84 88 80 91 85 95 90 119
161 152 102 148 178 178 162 160 175 174 173 175 164 182 181 176 118 158 170 110 191 200 101 90 93 82 90 90 94 90 88 89 85
186 160 182 170 179 165 157 162 165 186 194 193 186 193 193 194 200 181 199 232 204 185 119 95 89 89 93 95 89 95 89 90 93
185 184 180 182 174 165 192 180 191 198 188 174 192 129 182 181 174 110 248 169 188 236 177 94 90 175 88 88 92 95 93 86 92
160 187 171 184 192 188 192 193 186 187 192 203 199 178 230 234 228 214 204 124 149 152 187 96 115 84 91 90 91 93 96 92 94
179 181 182 183 182 187 180 181 175 184 201 201 209 237 230 233 231 217 110 208 217 220 219 233 154 224 85 109 121 156 97 79 151
186 183 183 191 191 192 194 189 194 195 195 215 238 228 245 240 231 231 223 233 229 211 203 125 230 141 105 106 103 100 78 183 242
171 176 185 182 184 200 199 192 194 194 211 214 215 211 219 215 212 217 225 216 221 218 210 217 226 101 104 95 95 154 176 216 252
181 181 181 199 205 201 196 197 196 206 223 207 213 218 208 217 222 209 202 209 198 201 205 227 202 225 243 240 88 240 252 221 234
193 194 196 208 191 193 201 206 204 204 212 219 205 209 210 212 224 213 212 207 220 205 210 195 229 228 232 238 233 236 220 262 252
193 209 196 203 199 196 198 207 206 208 209 205 208 210 208 213 218 218 210 205 210 224 209 208 217 220 226 235 235 224 236 252 252
212 203 202 197 204 205 203 201 205 206 204 206 213 215 201 208 212 220 218 221 214 217 222 214 215 215 221 220 233 228 219 228 249
206 211 202 195 201 200 203 206 206 204 202 207 204 196 202 209 217 216 203 212 211 216 221 215 204 215 219 220 225 228 233 229 244
201 205 205 204 201 209 212 203 202 200 192 197 200 200 211 206 220 218 215 213 206 206 218 200 212 209 224 221 221 220 237 221 225

GFSFLT1_2pvu_pres_036.txt.gz
Presure
151 121 138 131 126 107 114 124 151 144 122 151 123 160 142 151 154 125 169 133 171 170 151 134 133 170 124 97 145 91 89 87 154
158 146 145 145 142 136 131 133 145 159 158 107 155 114 146 146 135 154 155 158 146 153 142 167 161 138 88 88 87 89 88 149 123
115 134 119 126 133 148 156 136 126 115 144 102 155 152 145 139 126 146 148 152 155 165 142 157 154 134 86 85 88 109 102 90 123
140 144 164 152 157 149 149 159 149 141 150 149 145 145 142 144 148 152 141 149 164 181 179 188 148 124 179 102 80 137 175 86 122
136 152 141 153 153 170 139 150 139 158 108 158 157 145 162 157 136 147 125 151 169 187 182 181 144 89 85 89 82 78 82 116 91
149 146 144 150 157 139 156 157 160 164 155 156 163 159 170 164 152 160 139 168 175 170 174 190 194 97 118 90 88 84 98 94 98
163 152 141 138 139 146 149 150 148 137 154 151 172 164 162 164 158 165 169 179 191 189 152 191 190 125 91 92 84 86 84 89 87
139 116 148 164 136 133 198 160 180 146 182 183 181 153 180 158 184 185 189 116 189 211 226 180 180 184 100 81 78 82 89 90 90
150 154 165 167 109 187 190 188 188 187 184 178 176 182 186 191 194 184 182 194 236 233 238 229 176 214 117 89 91 88 93 95 93
172 169 154 174 99 107 127 178 178 179 180 181 195 191 198 187 191 207 111 202 249 212 242 237 236 234 207 127 99 156 93 94 89
170 96 154 182 151 180 156 189 190 189 182 183 189 190 208 199 196 205 225 223 211 222 222 219 232 222 230 208 228 181 82 88 94
194 196 197 188 178 182 186 186 184 173 172 184 204 195 193 203 198 216 219 211 217 215 232 221 169 218 221 216 213 91 114 86 102
177 183 183 183 163 169 169 164 165 171 180 196 215 209 203 198 209 209 215 217 207 217 230 221 211 200 206 206 209 229 234 227 235
170 171 172 168 165 170 178 186 188 190 193 209 204 203 203 202 206 211 207 214 217 209 210 221 224 197 219 227 204 219 223 227 164
168 168 168 167 172 173 198 183 198 197 200 211 197 197 205 209 208 208 207 206 202 207 207 213 233 216 222 220 220 226 221 228 224
188 186 191 214 206 206 203 200 194 198 203 202 208 201 206 203 203 207 207 204 210 199 206 216 218 212 214 213 218 228 220 217 220
201 207 217 205 201 199 201 196 196 203 201 207 198 198 197 207 210 199 196 201 191 205 211 214 204 223 214 212 208 224 213 216 223
215 215 205 201 203 205 206 205 209 211 202 203 201 199 207 202 200 199 198 211 205 208 212 210 218 222 226 218 205 212 208 211 217
213 208 208 208 212 214 214 216 208 203 205 197 204 207 196 200 195 202 202 201 225 215 208 216 213 220 232 224 220 212 206 209 209
215 217 208 207 204 205 198 210 209 207 202 203 202 194 195 201 210 202 220 222 219 223 210 215 219 224 226 229 219 223 217 205 208

GFSFLT1_2pvu_pres_039.txt.gz
Presure
111 113 125 154 156 160 159 153 154 146 116 157 157 132 129 149 154 160 147 150 150 107 149 155 156 154 138 149 161 105 153 89 85
141 142 143 140 124 124 132 141 128 143 128 167 117 152 153 153 158 153 157 126 143 104 157 123 159 165 177 193 135 161 88 91 90
117 114 118 136 120 138 144 144 150 152 152 135 163 121 144 149 154 147 153 157 140 163 174 173 169 161 169 101 155 87 89 92 131
113 134 144 141 144 146 153 126 150 148 151 153 155 150 125 160 180 148 147 159 157 177 141 168 165 162 187 173 82 189 85 85 155
146 143 138 140 139 158 134 151 152 147 145 137 149 140 152 153 147 114 148 174 177 189 161 179 163 115 191 192 141 209 98 82 78
97 145 156 140 84 133 142 140 138 153 150 149 148 185 176 174 191 191 155 182 178 180 179 186 185 197 190 192 221 89 88 85 86
130 149 142 142 132 112 150 145 154 141 144 147 176 158 175 186 182 183 181 180 182 197 201 185 193 199 246 256 244 161 90 88 89
145 139 145 150 115 124 149 152 126 173 178 171 164 179 182 180 171 173 190 183 184 191 193 202 207 230 228 229 228 235 91 113 86
159 158 98 141 148 171 170 102 169 170 174 157 187 182 182 195 198 187 181 178 182 189 194 201 227 215 206 233 228 220 226 89 86
128 165 121 155 160 171 163 191 196 196 162 102 191 181 176 174 172 172 171 178 214 215 212 215 152 231 150 223 167 224 208 214 89
116 173 167 152 183 183 192 149 184 177 180 179 178 166 173 165 166 178 190 202 212 210 212 205 210 213 223 212 214 234 228 203 217
172 171 175 177 175 186 185 178 173 171 167 166 170 164 167 175 184 191 203 215 207 208 214 214 212 209 204 213 213 212 229 222 215
168 179 184 176 174 170 176 174 166 171 178 168 169 178 210 196 193 200 206 201 212 207 206 204 215 207 208 215 200 220 202 207 219
185 181 180 173 171 161 169 169 170 179 183 201 214 208 202 203 202 196 204 206 207 200 201 219 207 200 196 211 215 221 209 226 224
185 182 180 183 186 194 196 198 191 199 213 212 208 205 201 197 197 199 210 203 198 201 208 204 201 201 206 200 216 224 219 223 224
183 182 190 196 200 197 199 201 200 216 212 212 201 194 199 201 203 205 201 192 200 204 209 199 198 220 205 215 228 217 218 225 224
189 207 215 215 219 206 206 202 219 210 205 205 208 207 211 207 208 199 188 195 199 200 201 196 203 211 222 211 216 216 225 221 228
223 219 223 224 215 211 215 211 206 213 212 213 208 207 207 198 192 206 206 200 198 201 197 191 210 221 214 213 218 218 224 222 225
153 228 225 225 225 221 220 219 182 219 220 214 205 192 199 203 193 194 200 202 199 199 199 207 211 221 223 218 221 217 225 216 228
220 178 181 211 213 208 189 211 208 208 204 182 204 200 201 194 193 195 199 195 200 198 212 215 226 216 217 214 224 218 215 226 221

GFSFLT1_2pvu_pres_042.txt.gz
Presure
124 118 125 132 105 138 134 139 113 118 124 140 146 121 149 148 153 134 132 141 158 134 144 127 91 175 157 170 172 171 177 134 198
123 131 122 139 137 125 125 129 142 143 143 142 146 142 151 158 155 124 116 147 149 147 135 125 164 162 167 191 183 190 191 172 140
136 129 147 133 123 115 120 150 149 121 130 145 139 135 142 142 162 135 150 135 160 179 159 191 192 193 190 192 179 191 196 170 117
148 129 138 139 127 146 144 144 144 149 154 116 154 141 150 153 156 147 144 155 179 190 176 162 173 180 183 186 190 134 197 85 102
143 142 139 146 147 101 97 141 152 147 133 133 136 147 147 149 146 180 174 188 177 162 185 187 173 190 128 184 188 191 124 244 88
137 150 148 92 108 106 134 147 136 155 139 150 149 153 124 125 183 190 194 194 189 134 183 189 190 185 177 179 222 222 233 226 228
95 133 130 140 149 140 136 146 147 150 140 156 166 156 177 201 196 196 196 201 192 182 175 173 171 172 172 192 221 225 214 228 240
155 155 143 136 152 137 146 148 151 117 155 107 170 182 185 193 187 143 180 170 181 174 174 172 172 187 217 215 226 193 213 226 208
153 155 143 141 152 151 157 148 97 102 175 170 171 179 184 96 177 168 173 171 168 170 168 169 182 195 197 215 219 222 226 214 208
84 145 122 152 157 143 112 157 169 171 171 174 110 172 170 170 175 171 167 175 175 171 182 203 201 201 208 213 207 207 216 203 221
155 153 140 83 82 118 180 182 169 174 183 184 175 164 172 164 172 171 177 201 215 210 207 208 205 198 214 209 200 221 205 204 203
160 167 170 81 164 176 180 181 185 185 190 179 180 179 181 189 193 193 207 217 212 206 204 199 204 206 213 205 201 211 199 201 223
171 168 174 178 182 182 181 181 182 183 181 183 184 195 217 216 200 201 214 215 204 200 199 197 206 209 205 198 211 211 199 197 224
172 176 179 171 175 181 182 181 183 189 193 205 209 214 212 197 197 214 210 207 202 201 201 207 206 208 198 213 198 205 203 213 225
106 183 183 188 191 183 187 199 201 229 221 203 217 218 212 202 215 215 206 213 212 205 211 202 193 209 206 204 205 201 208 211 211
186 178 190 194 187 200 191 180 230 193 226 226 218 210 212 215 205 207 216 211 215 209 201 191 195 199 190 195 200 206 202 216 222
185 189 187 179 184 158 206 239 229 186 174 224 226 221 216 216 209 173 207 205 199 201 192 190 199 194 200 203 199 201 198 227 224
177 177 163 161 164 184 165 197 162 193 232 211 195 196 196 213 193 205 203 202 199 186 191 199 200 199 201 201 204 221 223 218 219
155 153 147 190 221 227 175 186 197 225 187 212 212 220 216 207 199 204 203 199 199 200 197 198 197 198 202 216 219 221 221 214 211
153 219 243 161 208 198 183 220 225 194 219 189 190 209 199 206 206 203 203 204 205 203 199 203 207 214 219 219 225 224 218 213 214

GFSFLT1_2pvu_pres_045.txt.gz
Presure
142 127 128 136 146 128 139 128 117 113 130 125 151 143 127 134 150 146 139 143 148 151 117 146 164 181 185 98 162 105 192 183 194
140 127 121 141 121 135 134 141 139 143 144 137 151 147 155 143 144 134 143 150 146 158 176 181 195 196 190 180 174 172 202 201 156
130 135 131 133 106 125 130 137 133 148 146 147 150 151 146 145 137 126 154 159 169 170 204 197 190 206 199 191 185 185 185 184 182
129 142 142 139 144 131 136 147 147 146 141 98 156 151 151 150 154 151 158 173 173 190 199 189 188 184 185 173 184 177 181 181 192
143 131 114 136 138 131 145 144 142 98 142 102 140 141 137 154 154 159 165 174 163 126 125 180 178 175 176 178 177 177 172 182 183
107 103 133 138 141 145 90 143 155 144 122 150 125 150 149 117 150 170 171 175 185 178 173 174 177 176 172 174 180 173 172 201 218
121 132 122 146 146 147 137 149 146 135 148 146 150 150 171 173 143 111 155 186 178 179 176 172 170 173 171 207 214 204 203 207 211
144 147 145 140 152 158 141 151 151 129 149 154 170 162 172 103 146 183 109 183 170 171 169 170 187 196 222 218 204 212 204 205 212
147 156 157 132 137 149 150 148 151 90 163 170 106 142 178 179 181 137 178 179 188 185 211 221 213 218 210 212 206 206 202 206 216
151 151 134 93 151 90 145 132 148 134 140 170 177 173 186 181 181 183 203 214 208 211 223 210 205 207 213 209 206 204 206 214 211
149 151 129 157 147 138 137 160 144 156 174 175 181 181 182 181 194 215 219 207 209 215 214 212 209 208 200 205 206 208 214 211 210
153 154 147 153 160 162 168 163 174 173 179 182 177 184 175 191 185 230 211 228 222 217 216 207 213 203 211 204 212 211 211 203 211
149 152 158 158 168 177 175 176 183 180 177 179 182 180 192 183 193 225 214 207 196 202 212 216 210 207 214 212 215 206 203 196 200
153 160 169 178 178 184 178 186 182 178 194 191 192 196 202 185 210 213 188 161 212 221 218 208 200 212 173 212 200 199 210 192 194
178 178 176 178 185 183 182 188 192 190 175 203 171 168 189 234 192 187 188 175 200 189 198 192 198 206 203 195 196 197 194 197 207
181 182 184 181 181 175 176 186 187 184 199 171 162 159 213 152 191 181 234 205 209 218 223 216 212 201 198 202 197 199 205 206 205
179 170 184 191 183 181 191 173 196 184 161 153 191 222 192 200 191 214 225 191 208 203 205 204 206 202 203 201 197 201 201 204 203
186 182 179 183 153 184 166 190 194 164 161 172 214 190 226 208 220 220 201 195 190 192 198 200 204 202 199 200 205 204 204 200 227
185 149 186 175 160 196 204 194 153 220 193 179 198 217 227 218 205 225 218 210 210 212 218 217 215 230 230 231 228 226 221 215 221
181 195 160 159 193 203 191 213 164 196 222 202 227 229 230 226 229 235 234 243 254 250 249 244 243 238 231 220 216 218 214 212 220

GFSFLT1_2pvu_pres_048.txt.gz
Presure
135 141 122 146 126 122 136 139 125 138 117 124 138 149 150 142 161 149 144 147 120 162 156 146 162 176 186 182 185 184 180 97 184
132 132 130 129 124 126 144 140 141 127 134 128 142 145 145 153 147 145 148 145 140 153 176 165 181 176 182 190 177 178 182 110 97
136 130 128 131 128 116 117 132 146 110 129 137 144 145 152 144 144 147 150 153 164 176 181 181 173 183 192 183 152 183 177 176 156
120 129 124 123 130 132 121 118 128 132 144 149 139 135 155 156 148 139 140 174 167 177 179 182 183 187 185 182 167 173 172 181 208
137 135 129 145 141 124 92 110 139 152 143 100 108 148 149 141 150 154 174 169 179 178 189 110 185 190 191 195 186 205 228 214 225
113 125 129 113 124 137 137 142 142 143 158 147 157 141 154 133 164 176 102 150 168 162 183 186 201 221 226 214 209 224 225 216 208
94 114 139 144 144 146 142 148 149 154 139 153 156 147 156 125 116 141 106 104 174 191 136 150 230 222 203 204 215 213 209 210 214
140 140 141 145 137 136 145 137 153 141 156 151 163 148 164 169 174 173 161 179 192 183 208 186 237 214 228 213 216 215 208 216 213
135 138 151 136 136 140 85 151 155 155 115 82 153 167 88 97 177 183 195 197 190 203 199 197 230 218 207 220 218 219 215 215 214
149 141 140 83 110 153 156 153 156 152 156 158 179 173 175 174 176 176 191 189 197 197 241 224 221 205 220 178 217 217 220 205 212
81 146 151 154 78 151 159 149 151 159 78 181 177 169 180 170 183 186 197 192 184 232 236 216 184 190 201 225 219 203 211 210 213
144 148 148 153 146 157 151 158 168 175 179 180 174 187 177 181 187 194 204 187 183 164 218 185 178 193 170 219 223 202 197 189 199
152 156 152 152 154 155 161 169 172 176 178 173 192 179 177 182 190 192 182 182 200 182 213 154 194 188 198 197 207 211 215 212 204
147 150 153 166 160 156 167 166 181 178 179 178 185 185 174 182 192 178 192 152 198 167 200 191 234 227 173 222 190 183 183 200 207
154 156 163 158 159 166 176 181 171 177 168 165 189 175 157 174 166 173 190 204 215 222 195 218 224 223 227 216 210 200 198 198 202
164 158 157 168 177 162 182 168 154 165 182 186 177 168 162 202 226 186 203 215 219 202 227 225 222 212 217 212 213 203 199 200 200
153 175 173 167 184 170 174 158 176 185 178 191 161 201 210 226 227 235 234 223 220 226 225 219 197 224 214 217 223 213 214 209 207
163 146 173 172 144 174 170 168 188 172 153 199 194 199 188 181 239 221 219 225 220 210 220 226 231 230 234 235 236 237 236 236 233
176 173 165 135 167 161 162 191 159 186 200 187 186 189 225 248 216 229 234 225 227 236 246 249 255 251 246 245 228 227 143 229 228
190 187 164 190 191 156 184 189 185 178 197 192 205 238 239 216 235 226 211 238 259 277 269 235 260 253 259 249 243 239 233 237 225

GFSFLT1_2pvu_pres_051.txt.gz
Presure
148 114 135 105 109 133 125 131 119 139 124 139 139 139 98 133 150 147 139 145 151 126 152 146 172 166 170 182 191 194 104 212 212
105 105 109 146 135 131 132 137 130 138 115 115 132 132 145 152 147 148 149 143 108 152 166 163 172 181 182 184 190 196 228 223 217
110 139 142 124 141 148 134 124 123 139 142 137 93 143 143 157 141 130 102 148 148 151 177 175 199 196 204 193 192 194 236 208 214
130 140 103 117 143 122 146 148 133 99 119 140 107 148 137 95 108 148 150 141 161 173 172 152 171 190 190 203 214 237 223 230 215
141 135 142 141 128 148 131 126 139 138 139 141 144 144 148 159 151 149 144 158 168 176 97 90 92 191 198 217 186 234 179 229 214
148 139 126 122 111 107 116 139 137 149 140 137 153 154 159 150 159 144 177 171 173 181 179 167 108 202 192 191 249 225 190 205 217
140 137 147 153 121 138 142 133 146 143 141 154 152 155 132 83 162 175 172 171 84 120 94 185 193 208 183 193 219 226 184 199 178
118 125 126 138 140 135 141 143 145 150 151 156 147 152 92 101 164 178 171 163 162 183 186 170 184 186 190 234 162 172 187 223 189
134 134 141 143 133 137 142 141 131 72 153 146 159 165 155 160 181 176 173 169 178 192 172 186 201 179 175 210 158 165 199 219 193
149 146 147 152 79 101 150 152 154 159 159 152 164 154 161 154 174 177 171 167 184 189 173 197 227 208 230 194 217 181 199 209 225
145 145 144 87 148 148 147 155 151 150 160 163 154 165 177 176 170 172 179 162 188 186 188 199 204 219 238 217 214 198 202 224 227
146 145 154 148 147 145 153 159 161 163 158 155 172 177 175 170 177 178 173 193 192 204 200 226 184 184 235 202 209 207 214 221 213
152 155 144 152 151 150 152 156 162 151 146 164 169 169 172 171 152 161 197 198 202 184 197 191 194 225 215 213 205 217 223 218 206
146 151 154 149 154 151 161 163 145 149 166 157 169 175 167 147 169 182 197 196 167 191 183 235 240 239 221 223 222 216 196 201 196
146 149 150 145 162 161 155 146 144 175 164 176 180 176 174 159 201 170 181 190 193 237 242 240 231 216 230 228 224 215 219 225 225
137 149 162 151 155 146 150 158 174 166 178 181 177 148 188 181 171 177 144 187 248 243 235 238 229 228 225 216 212 222 231 232 228
159 158 149 158 155 167 168 161 165 177 158 151 186 189 168 177 174 187 191 215 247 242 228 232 231 224 228 247 245 242 242 244 237
160 148 162 162 162 168 167 168 146 165 177 166 164 164 171 189 183 191 214 233 240 235 235 230 246 256 264 259 262 241 219 240 244
163 159 155 168 155 163 168 142 173 159 181 185 178 178 186 197 187 212 230 243 219 235 260 280 278 279 274 281 267 269 239 247 257
162 165 164 161 171 176 177 169 178 174 168 175 178 192 198 195 213 245 245 218 246 276 261 290 267 271 270 262 267 254 244 251 239

GFSFLT1_2pvu_pres_054.txt.gz
Presure
116 109 121 123 105 106 120 112 129 122 135 143 127 125 139 108 122 142 142 120 149 96 150 137 171 173 182 182 183 193 214 200 204
120 107 106 133 109 131 139 121 126 119 146 125 132 127 134 142 135 145 142 136 96 151 158 178 168 179 172 191 197 195 210 197 195
127 126 129 140 140 103 121 131 135 106 110 133 135 135 127 137 138 137 149 153 151 155 159 177 172 163 181 182 138 189 211 239 241
102 142 102 127 92 137 146 144 128 127 130 132 113 138 152 147 149 143 149 164 145 158 152 177 172 169 173 196 116 134 251 225 185
140 151 137 134 137 94 148 137 153 122 123 117 146 136 146 141 158 150 156 147 155 170 174 175 182 172 89 88 142 203 243 173 229
145 133 135 138 132 141 145 126 137 144 139 138 139 142 146 149 153 160 150 82 155 167 175 177 182 180 121 195 205 218 199 240 240
138 137 132 111 130 142 134 124 149 151 137 154 146 151 80 118 159 130 159 164 171 171 181 176 183 185 196 179 196 182 192 169 205
133 129 136 150 142 135 136 141 133 143 126 146 146 152 160 157 149 147 165 166 175 177 182 174 192 166 190 182 164 239 189 231 228
137 139 133 143 152 137 136 151 85 149 93 80 145 154 156 147 147 165 162 169 179 180 171 179 181 187 182 186 170 233 232 237 217
127 126 140 133 140 146 148 122 151 158 143 156 152 160 150 151 146 169 161 177 182 173 145 172 181 175 179 163 220 229 239 229 220
138 134 140 146 155 148 151 150 147 149 155 153 158 150 145 151 166 164 169 182 174 168 195 179 173 189 186 208 259 249 233 227 214
149 144 152 140 142 152 141 152 150 148 154 152 150 145 162 166 152 167 179 182 172 163 193 172 174 161 179 221 244 241 223 229 221
147 142 148 149 153 152 153 155 141 162 153 152 149 160 155 145 163 173 151 155 186 184 186 179 176 201 214 246 239 219 227 228 222
151 154 146 149 151 146 141 145 158 156 149 147 152 157 159 161 174 168 167 181 169 171 185 182 204 205 236 246 236 224 229 227 233
141 145 152 145 152 149 150 161 159 154 152 162 157 167 169 169 173 179 179 177 178 182 181 204 195 223 248 241 230 246 257 261 256
151 149 152 146 151 151 161 150 144 159 167 153 143 158 165 175 175 181 175 187 176 196 204 199 214 251 242 236 253 267 262 253 176
149 145 147 151 157 156 140 156 162 162 152 150 164 167 175 164 175 181 187 175 200 203 203 201 241 243 240 262 293 293 292 287 285
158 156 159 160 161 151 163 161 167 150 161 154 172 179 167 172 184 193 176 200 202 201 197 252 248 243 256 292 282 262 263 268 266
156 148 128 159 159 160 164 162 155 146 165 173 178 176 181 187 192 186 189 194 199 196 252 246 244 267 286 277 273 276 263 260 267
159 160 159 165 162 160 152 156 160 168 175 163 168 168 187 188 203 192 193 200 202 252 238 247 281 150 265 276 274 261 254 258 256

GFSFLT1_2pvu_pres_057.txt.gz
Presure
129 142 122 108 108 97 106 136 100 131 138 133 126 149 137 97 119 131 147 150 147 150 135 148 153 162 167 185 185 197 201 195 194
109 165 159 139 128 117 111 109 142 138 122 125 144 142 145 97 139 121 135 145 149 151 142 148 165 168 181 180 189 134 169 169 180
109 132 162 132 116 113 131 129 136 134 135 139 138 126 123 122 116 135 142 159 151 135 121 138 162 173 185 187 191 186 125 90 198
133 134 113 133 147 140 149 140 132 140 129 145 139 132 140 149 138 144 147 146 149 147 146 169 164 95 187 174 194 187 176 182 181
131 130 125 146 92 151 129 132 135 134 142 146 123 143 148 143 122 149 155 150 147 144 165 160 164 175 183 176 192 178 180 179 200
132 132 148 146 143 135 137 133 139 126 128 121 148 107 123 157 152 143 150 147 148 159 161 167 165 182 184 180 178 187 169 198 189
134 150 89 120 82 113 134 145 141 146 132 136 149 137 74 145 138 160 146 145 151 161 159 157 176 182 179 178 189 172 176 204 201
90 135 147 144 133 130 135 143 131 138 151 153 156 150 145 143 166 147 146 150 159 160 168 162 180 177 158 178 166 200 180 203 217
143 144 134 131 130 141 135 139 132 127 143 90 144 146 157 159 150 142 153 151 161 163 165 164 172 181 177 167 176 201 205 196 229
146 137 137 150 144 126 133 144 146 142 153 144 149 139 134 158 155 149 158 156 158 156 169 178 171 179 190 190 190 205 203 211 253
145 131 145 144 139 145 146 142 147 150 152 148 139 149 157 158 152 159 156 162 160 170 157 181 168 192 187 196 197 198 202 233 260
153 154 88 144 145 144 142 152 149 150 146 140 151 148 157 144 155 162 162 152 176 163 183 169 189 189 192 200 195 204 214 250 249
144 149 149 146 148 152 149 149 154 146 148 140 158 153 150 156 161 158 169 143 160 176 173 182 184 184 198 192 206 195 231 248 235
144 144 145 153 147 139 149 151 143 148 143 159 156 157 160 162 153 161 147 155 174 186 182 186 189 186 191 205 209 247 251 248 243
148 150 145 147 142 149 144 150 155 147 158 160 160 158 144 161 150 150 171 180 182 185 185 176 185 199 206 211 240 250 251 249 282
148 145 146 151 149 150 148 149 159 151 157 158 152 141 168 156 167 170 172 179 182 188 174 191 201 202 207 230 253 255 253 300 280
149 144 153 153 148 157 160 154 161 146 161 159 148 158 155 169 172 179 172 182 178 191 191 200 199 202 254 243 255 254 291 298 223
155 149 155 158 156 157 163 157 136 158 158 167 164 166 158 172 169 184 178 179 191 189 189 196 203 238 241 230 247 285 304 287 273
151 148 151 150 157 156 159 165 159 159 160 158 167 169 165 166 175 159 179 187 188 185 194 202 225 248 236 251 275 296 291 277 256
156 156 159 158 156 158 162 162 166 144 167 171 179 166 178 178 175 175 175 180 185 190 200 214 261 247 244 262 298 291 280 260 241

GFSFLT1_2pvu_pres_063.txt.gz
Presure
98 112 102 93 106 96 106 122 114 152 165 141 132 146 132 128 134 110 137 143 148 127 97 155 124 132 144 152 159 165 162 159 161
112 108 110 111 101 125 105 144 146 125 145 122 131 137 138 138 138 138 129 122 121 126 130 138 140 152 151 154 151 165 159 154 182
136 126 141 115 126 138 161 125 108 129 153 132 124 136 141 136 129 137 123 138 141 137 138 131 142 138 150 158 156 163 152 170 184
140 139 138 123 116 143 139 146 133 128 125 100 97 143 141 133 127 76 147 132 145 150 134 151 138 160 156 148 152 157 148 172 181
118 148 140 125 110 120 137 141 138 134 90 138 155 144 143 137 127 82 124 138 152 140 133 143 146 153 157 148 164 154 144 177 184
161 134 125 136 146 144 130 139 138 128 135 133 154 145 143 137 127 149 139 148 139 139 158 136 153 159 151 150 168 147 171 187 182
139 136 151 126 130 127 123 143 114 135 126 143 135 141 125 147 143 144 148 150 146 137 147 151 159 151 164 145 163 168 167 191 185
88 83 98 131 148 147 139 133 134 145 141 136 148 142 127 144 146 152 131 142 136 156 156 153 154 168 151 156 157 175 190 188 179
78 157 149 139 149 149 144 149 142 143 144 144 143 147 153 144 154 141 143 136 157 142 154 156 164 162 159 156 169 169 187 186 180
147 101 85 108 152 153 146 150 150 148 144 151 157 156 139 159 145 151 140 160 149 160 158 159 155 158 158 170 169 166 185 191 181
145 143 153 135 143 159 151 153 159 154 154 151 145 141 155 140 153 138 160 153 158 157 150 148 161 161 153 165 174 181 179 188 187
142 121 140 134 144 142 143 142 140 143 140 144 147 151 143 152 157 150 159 150 157 153 151 158 159 168 168 166 179 186 189 182 192
146 151 137 146 137 136 132 134 129 136 134 148 142 145 139 139 158 156 150 153 158 147 167 160 154 168 173 182 183 185 195 198 201
139 143 142 150 148 149 147 127 148 144 147 149 145 157 157 152 153 150 153 138 157 153 159 162 167 172 176 179 194 184 199 191 198
144 140 140 142 141 146 152 152 158 155 150 149 147 159 145 160 148 158 136 160 161 166 161 168 165 179 185 194 192 196 184 201 203
150 151 155 150 153 145 143 140 152 149 145 133 158 152 151 149 135 156 160 170 169 157 170 170 182 174 200 189 187 183 198 206 223
158 151 151 151 154 153 158 155 150 141 128 129 157 144 152 167 141 170 163 165 159 171 174 190 193 197 193 182 172 187 194 196 236
163 163 156 153 155 153 162 163 140 120 156 163 162 158 152 166 170 165 162 173 173 184 189 164 197 188 180 190 171 191 206 248 243
167 141 163 162 161 153 140 144 149 138 162 159 167 169 158 163 162 170 156 175 186 167 170 195 195 174 198 191 194 223 196 213 239
186 189 184 181 173 128 171 164 162 167 169 171 172 166 168 173 169 176 179 163 175 181 189 190 152 201 173 193 192 233 221 214 266

GFSFLT1_2pvu_pres_066.txt.gz
Presure
147 139 137 145 112 92 123 150 123 136 144 151 147 140 140 132 130 134 84 138 132 126 146 132 153 141 141 138 142 159 139 155 158
132 134 138 136 135 126 128 115 123 136 147 106 130 126 116 89 141 135 147 72 134 106 110 137 120 143 135 149 158 143 168 156 150
126 141 137 123 143 141 146 143 115 122 123 138 143 112 133 139 135 138 143 74 136 131 142 128 131 145 143 149 152 149 165 153 171
130 133 144 129 153 140 148 152 129 117 129 126 140 87 126 134 137 160 150 147 157 138 132 147 151 143 146 159 155 157 160 154 157
126 126 144 144 142 136 135 125 125 135 126 122 131 141 135 141 131 146 142 139 131 144 148 148 141 161 149 158 151 161 156 153 163
128 135 128 142 131 141 144 143 132 137 138 134 140 129 136 146 148 141 151 144 156 142 150 153 157 146 137 155 161 153 156 166 168
140 132 139 130 109 129 122 129 141 137 143 151 145 144 145 144 146 147 147 156 157 151 149 143 159 159 142 165 132 163 173 154 179
83 136 146 92 93 111 134 153 136 116 151 145 146 152 150 128 154 157 150 143 153 141 144 155 164 142 161 149 159 155 172 170 173
82 143 156 132 75 139 138 99 154 157 149 156 150 135 158 159 156 148 144 147 138 143 141 160 144 157 160 150 161 163 167 179 188
145 115 84 142 134 144 146 156 157 144 149 157 155 152 146 138 142 141 145 155 140 146 156 165 152 156 159 155 158 171 177 175 191
140 148 147 151 153 142 152 144 126 139 133 141 143 135 131 130 142 140 157 133 143 140 160 153 158 146 168 167 169 175 185 182 193
142 146 143 144 157 141 151 145 139 139 136 142 140 137 155 160 149 156 147 149 158 150 158 159 160 162 176 156 173 182 162 190 184
149 158 146 145 148 147 150 140 146 150 148 150 154 156 156 160 159 160 150 143 136 163 155 153 159 177 159 159 178 176 179 192 186
152 150 147 141 126 158 148 129 129 151 142 147 143 150 148 147 153 147 145 134 160 165 154 171 166 161 166 177 180 189 182 185 190
153 149 154 149 149 153 160 158 143 148 151 154 151 146 160 163 163 134 155 162 171 159 169 159 168 174 181 182 189 190 184 194 174
162 156 159 159 160 153 158 157 158 157 157 156 154 159 165 160 156 132 162 167 168 176 170 180 191 190 190 189 189 185 194 151 208
159 160 161 165 161 152 151 160 163 159 164 167 165 160 144 135 127 138 179 179 170 156 192 193 190 154 187 191 199 164 193 167 183
175 174 168 160 163 170 170 162 159 142 158 163 167 125 168 174 178 190 181 179 190 189 190 193 160 192 196 204 166 204 184 198 215
125 164 149 143 133 126 190 184 177 182 183 184 194 195 190 192 157 184 180 184 182 183 151 190 162 152 186 199 162 193 169 210 190
176 180 172 194 196 200 155 133 189 194 190 181 152 180 174 173 147 151 177 145 145 134 168 185 135 186 182 185 192 199 210 200 210

GFSFLT1_2pvu_pres_069.txt.gz
Presure
105 115 115 127 149 145 136 139 140 143 138 150 118 117 121 84 151 108 132 130 150 136 147 144 146 153 145 146 140 164 142 153 149
118 116 132 144 143 144 143 138 121 126 145 133 134 120 110 124 142 137 144 128 139 135 160 152 128 125 142 147 153 147 154 167 144
133 122 129 118 123 131 125 145 136 152 135 143 130 130 128 128 130 140 133 138 139 147 127 148 124 147 157 147 155 154 155 165 150
134 133 125 120 106 134 126 140 141 147 135 150 143 130 135 139 136 135 141 139 149 143 142 133 157 161 149 151 152 158 146 161 148
119 125 121 131 138 128 125 127 84 130 145 124 131 131 129 138 144 152 148 150 151 141 155 159 146 148 146 139 160 150 145 165 165
121 109 125 135 110 144 120 168 112 137 134 133 144 138 128 143 143 145 146 141 148 157 159 148 137 143 127 139 162 150 156 162 159
81 80 82 83 136 136 78 116 157 162 134 138 134 123 147 159 147 153 149 146 158 141 140 139 143 150 159 142 161 150 154 168 154
135 128 83 85 82 91 155 154 98 139 136 151 152 154 154 163 140 158 157 150 128 131 149 131 138 148 156 141 160 160 165 181 164
157 150 72 145 77 151 145 143 147 155 151 147 145 148 159 157 133 128 134 132 139 138 153 152 152 145 146 160 166 163 178 163 180
84 112 116 117 153 150 145 145 137 152 147 139 139 142 146 150 141 143 143 142 137 155 159 162 150 143 166 176 171 172 170 187 200
140 129 150 148 133 150 147 149 145 144 140 155 146 151 152 149 147 148 150 149 153 154 156 167 157 146 166 170 163 169 191 201 185
147 137 136 136 135 133 136 146 137 155 148 147 159 150 145 141 144 144 152 160 152 151 158 169 132 132 179 188 174 180 202 199 188
145 151 153 155 155 145 146 139 139 148 142 144 153 156 146 157 157 164 161 160 160 165 165 170 126 177 188 193 187 196 194 194 181
157 153 146 148 153 152 150 151 159 149 151 157 150 161 158 157 159 164 167 167 149 162 170 168 177 195 191 186 183 185 191 155 183
159 158 154 150 152 159 167 162 148 162 155 155 157 160 152 157 159 163 167 127 171 127 138 196 185 187 190 185 179 184 156 188 187
159 156 162 126 151 164 162 163 164 160 160 160 159 142 159 169 136 165 169 169 160 167 171 180 179 175 141 162 173 139 147 154 183
167 162 162 161 167 122 135 159 167 171 142 172 170 179 181 186 191 199 194 188 194 154 193 145 187 169 168 173 165 154 182 176 173
161 168 144 167 160 166 169 129 125 136 179 156 134 145 200 134 145 179 196 175 193 190 178 172 174 171 171 172 172 150 191 154 195
176 172 172 174 175 165 165 181 177 148 169 161 128 200 204 207 155 173 167 141 165 149 175 145 140 190 183 143 132 153 192 199 185
163 168 169 169 181 152 194 187 164 182 199 199 189 194 194 187 185 180 168 187 164 152 152 151 170 188 172 161 174 180 204 200 211

GFSFLT1_2pvu_pres_072.txt.gz
Presure
153 159 115 119 137 123 116 106 146 138 136 125 134 155 142 142 135 130 135 137 136 135 143 139 146 144 140 148 158 159 128 153 158
138 149 134 132 135 122 134 118 141 134 129 141 144 145 141 146 138 138 128 138 141 143 143 144 147 148 147 147 154 134 147 132 142
118 149 135 138 136 132 126 130 131 125 129 131 118 138 137 122 134 135 147 140 143 145 144 149 144 144 161 155 149 134 151 137 139
115 140 125 119 117 125 121 129 130 132 136 141 135 126 135 133 136 139 110 144 143 143 151 148 144 157 133 138 129 135 146 140 142
122 116 120 121 132 141 124 143 76 152 143 88 138 121 133 147 135 137 136 147 154 153 143 148 123 132 128 130 140 137 150 144 138
151 153 114 145 120 119 98 156 128 84 130 107 152 120 149 144 146 148 150 153 153 133 137 138 141 139 139 142 151 162 157 135 154
78 109 142 84 151 101 80 120 152 144 143 151 153 155 149 152 151 150 148 147 150 153 142 148 141 138 142 156 150 170 169 140 177
72 82 112 92 132 145 108 153 146 157 152 150 148 144 145 149 149 144 138 137 138 134 145 148 150 124 135 159 164 163 171 152 195
83 148 111 126 122 91 89 153 147 150 151 148 142 143 145 139 139 126 150 156 155 141 138 140 147 166 161 170 163 175 145 201 201
80 78 83 142 136 131 149 135 150 152 149 151 141 141 149 140 146 147 141 133 147 159 160 158 160 164 171 162 175 170 188 192 161
126 98 83 84 134 103 139 137 134 134 134 132 135 139 142 141 143 152 148 156 161 158 156 157 161 170 166 160 172 197 155 151 162
81 147 119 142 139 141 140 142 150 149 151 153 148 150 153 150 160 147 158 154 157 160 146 161 166 163 197 199 178 168 200 201 184
148 150 148 150 152 152 151 152 146 143 150 151 155 152 162 164 167 158 165 165 160 148 178 184 200 185 180 152 167 149 157 177 180
146 146 149 155 146 156 157 156 160 161 158 163 159 151 167 162 163 164 166 170 159 182 170 187 164 158 190 143 192 174 197 149 180
158 163 160 154 136 163 162 154 162 159 164 167 158 158 168 169 158 145 170 179 147 169 126 193 192 157 193 167 161 153 195 149 187
126 151 163 160 158 165 168 163 134 162 170 145 133 165 127 114 125 162 142 114 144 162 182 199 202 190 185 146 142 142 205 176 141
164 155 164 166 166 159 159 156 161 162 149 168 159 172 156 135 142 137 173 147 178 170 183 158 206 210 192 133 139 172 200 136 181
143 159 157 164 168 165 168 170 178 174 178 157 172 174 163 166 175 180 189 181 164 146 184 165 152 169 196 186 165 149 192 143 193
156 135 176 162 166 183 173 174 175 155 165 102 178 176 173 159 169 189 190 176 159 128 122 177 177 129 130 190 181 187 192 178 190
180 181 171 172 181 180 185 172 168 173 177 172 170 170 159 163 130 147 107 125 125 150 180 133 145 183 198 191 189 194 205 176 199